TimeMST,TemperatureF,Dew PointF,Humidity,Sea Level PressureIn,VisibilityMPH,Wind Direction,Wind SpeedMPH,Gust SpeedMPH,PrecipitationIn,Events,Conditions,WindDirDegrees,DateUTC
12:53 AM,71.1,54.0,55,29.86,10.0,West,4.6,-,N/A,,Clear,260,2013-07-29 07:53:00
1:53 AM,71.1,53.1,53,29.88,10.0,West,4.6,-,N/A,,Clear,270,2013-07-29 08:53:00
2:53 AM,70.0,53.1,55,29.86,10.0,Calm,Calm,-,N/A,,Clear,0,2013-07-29 09:53:00
3:53 AM,68.0,53.1,59,29.89,10.0,Calm,Calm,-,N/A,,Partly Cloudy,0,2013-07-29 10:53:00
4:53 AM,66.0,55.0,68,29.89,10.0,Calm,Calm,-,N/A,,Clear,0,2013-07-29 11:53:00
5:53 AM,66.0,55.0,68,29.91,10.0,Calm,Calm,-,N/A,,Partly Cloudy,0,2013-07-29 12:53:00
6:53 AM,70.0,55.0,59,29.93,10.0,NNW,3.5,-,N/A,,Clear,330,2013-07-29 13:53:00
7:53 AM,72.0,55.0,55,29.93,10.0,North,4.6,-,N/A,,Clear,350,2013-07-29 14:53:00
8:53 AM,73.9,55.0,52,29.94,10.0,NE,3.5,-,N/A,,Clear,40,2013-07-29 15:53:00
9:53 AM,77.0,55.0,47,29.94,10.0,NNE,3.5,-,N/A,,Clear,30,2013-07-29 16:53:00
10:53 AM,79.0,55.0,44,29.93,10.0,Variable,3.5,-,N/A,,Clear,0,2013-07-29 17:53:00
11:32 AM,82.4,55.4,39,30.11,10.0,North,4.6,-,N/A,Thunderstorm,Clear,360,2013-07-29 18:32:00
11:53 AM,80.1,55.9,43,29.94,9.0,NNW,16.1,24.2,N/A,Thunderstorm,Thunderstorm,330,2013-07-29 18:53:00
12:01 PM,77.0,62.6,61,30.10,5.0,NNE,10.4,29.9,0.00,Rain-Thunderstorm,Light Thunderstorms and Rain,30,2013-07-29 19:01:00
12:53 PM,82.0,59.0,45,29.91,10.0,Calm,Calm,-,0.00,,Clear,0,2013-07-29 19:53:00
1:36 PM,80.6,57.2,45,30.10,10.0,East,3.5,-,0.00,Rain-Thunderstorm,Light Rain,90,2013-07-29 20:36:00
1:51 PM,84.2,57.2,40,30.09,10.0,ESE,6.9,-,0.00,,Partly Cloudy,120,2013-07-29 20:51:00
1:53 PM,86.0,57.0,37,29.89,10.0,SE,5.8,-,0.00,,Partly Cloudy,130,2013-07-29 20:53:00
2:53 PM,89.1,52.0,28,29.87,10.0,Calm,Calm,-,N/A,,Clear,0,2013-07-29 21:53:00
3:11 PM,87.8,51.8,29,30.06,10.0,SSE,5.8,-,0.00,Rain-Thunderstorm,Light Rain,150,2013-07-29 22:11:00
3:43 PM,86.0,50.0,29,30.06,10.0,SSE,15.0,-,0.00,,Partly Cloudy,160,2013-07-29 22:43:00
3:51 PM,86.0,50.0,29,30.06,10.0,SSE,13.8,-,0.00,Thunderstorm,Thunderstorm,160,2013-07-29 22:51:00
3:53 PM,86.0,50.0,29,29.87,10.0,SSE,12.7,-,0.00,Thunderstorm,Thunderstorm,160,2013-07-29 22:53:00
4:06 PM,87.8,51.8,29,30.06,10.0,South,9.2,-,N/A,,Mostly Cloudy,170,2013-07-29 23:06:00
4:53 PM,89.1,48.9,25,29.86,10.0,SE,11.5,-,N/A,,Partly Cloudy,140,2013-07-29 23:53:00
5:53 PM,87.1,48.9,27,29.86,10.0,SE,6.9,-,N/A,,Partly Cloudy,140,2013-07-30 00:53:00
6:53 PM,88.0,51.1,28,29.85,10.0,SSE,6.9,-,N/A,,Mostly Cloudy,160,2013-07-30 01:53:00
7:53 PM,82.9,55.0,38,29.88,10.0,SSE,4.6,-,N/A,,Partly Cloudy,150,2013-07-30 02:53:00
8:53 PM,82.0,55.0,39,29.90,10.0,WSW,3.5,-,N/A,,Clear,250,2013-07-30 03:53:00
9:53 PM,82.0,50.0,33,29.91,10.0,SW,4.6,-,N/A,,Clear,220,2013-07-30 04:53:00
10:53 PM,82.0,46.9,29,29.92,10.0,SW,3.5,-,N/A,,Clear,220,2013-07-30 05:53:00
11:53 PM,80.1,46.9,31,29.95,10.0,SW,5.8,-,N/A,,Clear,230,2013-07-30 06:53:00